Weather History for KTOR - January, 2014

Change the Weather History Date:

Saturday, January 18, 2014

  Actual Average Record
Temperature  
Mean Temperature 40 °F 28 °F  
Max Temperature 50 °F 42 °F 59 °F (2009)
Min Temperature 30 °F 15 °F 6 °F (2008)
Degree Days  
Heating Degree Days 25 37  
Month to date heating degree days 632 670  
Since 1 July heating degree days 3398 3426  
Cooling Degree Days 0 0  
Month to date cooling degree days 0 0  
Year to date cooling degree days 0 0  
Moisture  
Dew Point 18 °F    
Average Humidity 41    
Maximum Humidity 53    
Minimum Humidity 29    
Precipitation  
Precipitation 0.00 in 0.01 in 0.07 in (2000)
Month to date precipitation 0.12 0.15  
Year to date precipitation 0.12 0.15  
Sea Level Pressure  
Sea Level Pressure 30.12 in    
Wind  
Wind Speed 13 mph (WNW)    
Max Wind Speed 32 mph    
Max Gust Speed 42 mph    
Visibility 10 miles    
Events      
T = Trace of Precipitation, MM = Missing Value Source: NWS Daily Summary

Daily Weather History Graph

Daily Weather History Graph

Search for Another Location

Airport or City:

Trip Planner

Search our weather history database for the weather conditions in past years. The results will help you decide how hot, cold, wet, or windy it might be!

Date:

Astronomy

Jan. 18, 2014 Rise Set
Actual Time 7:20 AM MST 4:53 PM MST
Civil Twilight 6:50 AM MST 5:24 PM MST
Nautical Twilight 6:15 AM MST 5:58 PM MST
Astronomical Twilight 5:42 AM MST 6:32 PM MST
Moon 7:41 PM MST (1/18) 8:18 AM MST (1/18)
Length of Visible Light 10h 34m
Length of Day
9h 33m
Waning Gibbous, 94% of the Moon is Illuminated
Jan 18
Waning Gibbous
Jan 23
Last Quarter
Jan 30
New
Feb 6
First Quarter
Feb 14
Full

Hourly Weather History & Observations

Time (MST) Temp. Windchill Dew Point Humidity Pressure Visibility Wind Dir Wind Speed Gust Speed Precip Events Conditions
12:53 AM 33.1 °F 24.4 °F 16.0 °F 50% 30.04 in 10.0 mi West 11.5 mph - N/A   Clear
1:53 AM 37.0 °F 28.5 °F 16.0 °F 42% 30.05 in 10.0 mi WNW 13.8 mph - N/A   Clear
2:53 AM 36.0 °F 29.0 °F 16.0 °F 44% 30.06 in 10.0 mi NW 9.2 mph - N/A   Clear
3:53 AM 30.9 °F 26.2 °F 16.0 °F 54% 30.07 in 10.0 mi WSW 4.6 mph - N/A   Clear
4:53 AM 37.9 °F 28.9 °F 16.0 °F 41% 30.07 in 10.0 mi WNW 16.1 mph - N/A   Clear
5:53 AM 35.1 °F 26.9 °F 16.0 °F 46% 30.12 in 10.0 mi WNW 11.5 mph - N/A   Clear
6:53 AM 37.0 °F 27.7 °F 18.0 °F 46% 30.15 in 10.0 mi WNW 16.1 mph 24.2 mph N/A   Clear
7:53 AM 37.9 °F 28.2 °F 19.9 °F 48% 30.18 in 10.0 mi NW 18.4 mph 26.5 mph N/A   Clear
8:53 AM 39.9 °F 29.7 °F 21.0 °F 47% 30.21 in 10.0 mi NW 23.0 mph 39.1 mph N/A   Clear
9:53 AM 42.1 °F 31.7 °F 21.9 °F 45% 30.22 in 10.0 mi NW 27.6 mph 40.3 mph N/A   Clear
10:53 AM 44.1 °F 34.6 °F 21.9 °F 42% 30.25 in 10.0 mi NW 26.5 mph 33.4 mph N/A   Clear
11:53 AM 46.0 °F 37.4 °F 21.9 °F 39% 30.20 in 10.0 mi NW 25.3 mph 40.3 mph N/A   Clear
12:53 PM 48.0 °F - 21.0 °F 34% 30.16 in 10.0 mi NW 25.3 mph 36.8 mph N/A   Clear
1:53 PM 48.9 °F - 21.0 °F 33% 30.15 in 10.0 mi NW 18.4 mph 29.9 mph N/A   Clear
2:53 PM 50.0 °F - 19.0 °F 29% 30.14 in 10.0 mi NW 15.0 mph - N/A   Clear
3:53 PM 48.9 °F - 18.0 °F 29% 30.14 in 10.0 mi NW 12.7 mph - N/A   Clear
4:53 PM 45.0 °F 41.8 °F 18.0 °F 34% 30.12 in 10.0 mi NNW 5.8 mph - N/A   Clear
5:53 PM 36.0 °F 30.3 °F 18.0 °F 48% 30.15 in 10.0 mi SSW 6.9 mph - N/A   Clear
6:53 PM 37.0 °F 33.3 °F 19.9 °F 50% 30.12 in 10.0 mi West 4.6 mph - N/A   Clear
7:53 PM 34.0 °F - 18.0 °F 52% 30.11 in 10.0 mi Calm Calm - N/A   Clear
8:53 PM 33.1 °F 30.0 °F 18.0 °F 54% 30.09 in 10.0 mi Variable 3.5 mph - N/A   Clear
9:53 PM 35.1 °F 31.0 °F 17.1 °F 48% 30.06 in 10.0 mi SW 4.6 mph - N/A   Clear
10:53 PM 36.0 °F 28.5 °F 17.1 °F 46% 30.04 in 10.0 mi WNW 10.4 mph - N/A   Clear
11:53 PM 41.0 °F 34.7 °F 17.1 °F 38% 30.01 in 10.0 mi West 10.4 mph - N/A   Clear